COSMOS 1275 DEB, 42114

Orbit data source: Space-Track

COSMOS 1275 DEB, 42114 is space debris in LEO originally from a launch on Thu, 04 Jun 1981 UTC launched from the Plesetsk Missile And Space Complex (PKMTR). Debris objects in space refer to the collection of defunct objects orbiting the Earth. Examples of debris include non-operational satellites, rocket bodies, and fragments generated from explosions, collisions, or faulty payload assembly.

Loading next visibility...
Identifier
42114, 1981-053QA
Orbit
LEO
Country
Flag of CISCIS
Related business
Manufacturer
Unknown
Mission
Spacecraft
Bus & Motor
Unknown
Mass
Unknown
Launch date (UTC)
1981-06-04 (45 years ago)
Launch vehicle
Unknown
Launch site
Plesetsk Missile And Space Complex (PKMTR)
Object type
Payload
Rocket body
Debris
Shape & HBR
Unknown shape, 0.1 m
Radar Cross Section
Small (<0.1 m²)

Expand to show TLE details & history
Last TLE update: 16 hours ago

TLE from 16 hours ago
0 COSMOS 1275 DEB
1 42114U 81053QA  26107.11177743  .00004437  00000-0  13763-2 0  9996
2 42114  82.8142 341.3323 0035167 121.7242  30.3535 14.40616210642319
Epoch: 2026-04-17T02:40Z
TLE epoch observation values (Epoch: 2026-04-17T02:40:57.569Z)
Latitude
27.52279°
Longitude
-87.90382°
Altitude
738.265 km
Speed
7.5 km/s
True Right ascension
10h 30m 20s
True Declination
27° 22' 54"
Sunlit
Object was in full shadow at epoch
Visualization orbit readout
Latitude
Unknown
Longitude
Unknown
Altitude
Unknown
Speed
Unknown
Apparent Right ascension
Unknown
Apparent Declination
Unknown
Sunlit
N/A
Visualization observer readout
Local Sidereal Time
01:25:09
Azimuth
Unknown
Elevation
Unknown
Doppler factor
Unknown
Orbital elements
Apogee altitude
778.607 km
Perigee altitude
728.447 km
Semi-major axis
7,131.664 km
Eccentricity
0.00352
Inclination
82.8142°
RAAN
341.3323°
Arg. of periapsis
121.7242°
True anomaly
30.55792°
Mean anomaly
30.3535°
Eccentric anomaly
30.45563°
Mean motion
3.60377 °/min
Orbital period
99.9 mins
BSTAR
0.0013763
Loading maneuver chart data...
Computing Atmospheric mass density...

Documentation

Showing up to 5 results
|